Location: Newark
(58.8333°N, 23.5833°E)
Time: 10:08:38
(UTC+00:00)

S-56A Canister/Altair - Pass Details

Date: 23 November 2019
Orbit: 633 x 2500 km, 38.9° (Epoch: 12 December)

Event Time Altitude Azimuth Distance (km) Brightness Sun altitude
Rises 17:22:55 0° 249° (WSW) 4,848 12.6 -26.5°
Reaches altitude 10° 17:28:16 10° 229° (SW) 3,415 11.3 -27.2°
Maximum altitude 17:32:12 14° 200° (SSW) 2,767 10.5 -27.7°
Enters shadow 17:35:07 11° 174° (S) 2,755 10.2 -28.0°
